Theta_e
311 311 311 310 310 309 308 307 307 308 310 311 312 313 313 313 314 313 316 316 316 314 313 316 316 316 318 321 320 320 321 324 325 323 322 317 317 315 314 316 316 315 315 313 311
312 312 312 311 311 310 309 308 308 307 307 309 310 313 314 314 314 318 316 315 312 312 315 316 318 318 320 322 321 321 326 326 320 319 319 318 317 317 315 314 315 315 311 311 309
312 312 312 312 312 312 311 310 309 308 307 307 309 312 313 313 320 319 317 315 312 312 315 316 316 319 321 322 322 322 323 321 320 319 318 317 317 317 316 315 315 314 313 309 308
312 312 312 312 312 312 312 311 310 309 307 307 308 311 313 315 319 316 314 313 311 312 315 315 318 320 320 323 321 321 320 320 320 317 317 317 317 316 315 315 317 317 316 309 307
313 312 312 312 312 312 312 312 311 310 308 307 307 311 315 318 318 314 312 311 310 313 315 317 318 319 321 321 321 319 318 318 318 317 316 316 315 315 314 314 314 314 314 309 309
311 312 311 311 311 312 312 312 311 310 309 307 308 311 316 316 315 314 312 311 312 313 314 316 318 318 318 319 319 318 318 317 317 317 316 315 315 315 315 313 313 314 311 310 309
312 311 309 309 309 310 311 311 311 310 308 307 310 312 317 316 314 313 313 312 311 312 314 315 316 317 319 320 317 316 316 316 316 316 316 316 315 315 314 313 314 313 312 310 310
313 312 311 309 306 307 309 310 309 309 308 308 311 315 316 314 315 313 312 311 310 311 313 314 314 316 317 317 316 316 317 318 319 317 314 314 315 316 314 314 313 312 311 311 310
313 313 313 312 309 305 307 308 308 307 309 311 313 317 317 313 313 314 312 313 311 312 313 312 315 317 316 316 315 317 318 318 320 316 314 314 315 317 316 316 314 312 311 311 311
315 314 314 313 310 305 305 307 307 309 312 313 314 317 315 316 315 314 312 312 313 313 314 315 316 316 315 315 317 318 318 316 316 315 315 314 314 314 314 315 313 313 313 312 312
315 314 314 314 310 305 306 307 314 316 314 316 317 316 315 315 313 313 311 311 313 314 314 315 315 316 316 316 317 316 317 316 316 316 316 315 315 315 315 314 314 315 315 314 313
316 316 315 315 307 306 310 312 312 309 311 311 312 314 314 315 317 315 311 312 313 314 314 316 317 316 316 316 315 316 316 315 315 314 315 314 315 315 314 315 315 315 314 314 312
317 316 315 316 308 313 310 311 309 312 314 312 311 312 311 313 313 315 310 312 314 315 315 315 316 316 315 315 315 315 315 315 315 315 312 314 314 314 313 314 314 314 313 313 310
320 318 315 316 314 312 311 308 308 310 310 311 311 312 313 313 311 312 311 313 314 314 314 314 314 315 314 315 314 314 314 315 316 315 316 314 315 314 314 313 312 312 311 311 309
322 320 316 315 313 312 310 307 307 311 312 312 309 310 313 312 311 310 307 310 313 314 315 314 314 315 316 315 314 315 312 314 315 316 316 316 315 314 313 312 312 311 311 311 310
323 322 317 315 315 313 309 307 310 309 310 312 312 313 314 313 312 308 309 308 310 313 312 312 312 314 315 311 313 311 314 313 313 312 315 314 315 313 312 312 312 311 311 310 308
323 322 319 315 316 313 308 311 309 309 312 313 313 313 313 315 313 310 311 310 311 313 313 314 313 312 311 313 310 311 315 316 318 316 317 312 313 315 314 311 310 309 310 309 307
321 321 319 316 315 315 309 310 310 317 315 312 312 314 315 314 314 312 313 313 311 312 314 316 315 313 310 313 315 311 315 318 317 314 314 313 313 312 312 311 309 309 310 307 306
320 318 315 317 315 312 311 311 320 321 317 316 315 312 312 313 314 314 312 313 313 311 314 313 313 309 309 311 313 313 313 314 315 306 312 312 311 312 312 311 309 308 309 306 305
316 315 314 318 315 310 310 313 317 318 316 313 311 312 312 311 313 314 314 313 313 312 312 313 314 310 306 306 306 309 308 312 313 310 312 313 314 315 312 310 309 309 307 307 306
314 316 315 315 312 311 312 311 315 315 316 315 316 310 309 309 310 311 312 312 313 314 312 313 314 311 306 306 309 307 308 309 310 313 316 318 315 310 312 312 310 308 308 308 307
314 317 313 313 314 313 313 311 313 315 316 316 308 310 312 310 311 310 309 310 309 312 312 312 315 317 313 308 306 309 310 310 312 313 311 313 314 309 310 310 309 308 308 308 308
312 315 311 313 319 317 310 313 313 315 316 316 317 311 312 312 314 313 313 312 313 312 312 310 314 316 315 312 305 308 308 310 311 310 312 313 313 311 310 308 307 307 306 306 306
310 314 310 310 315 318 318 314 314 313 314 315 316 315 316 315 314 315 314 312 311 311 313 312 314 315 316 314 313 311 309 308 309 312 312 312 311 311 311 311 311 311 307 306 306
307 311 312 313 310 312 316 316 316 315 314 314 316 317 315 316 315 315 313 313 312 312 311 311 313 312 312 312 312 312 312 312 314 309 310 310 310 310 311 311 311 310 310 308 308
304 307 303 305 306 308 312 312 316 315 316 315 316 316 316 318 316 317 316 314 314 311 312 311 313 312 314 312 312 313 312 312 313 313 314 311 309 309 309 309 309 310 310 309 308
299 298 299 302 304 305 308 311 310 305 308 314 313 315 316 316 315 314 314 314 314 316 315 309 311 312 313 312 312 314 313 312 312 311 311 312 311 311 311 310 310 310 310 309 309
Wind_Speed
10 11 12 13 14 15 15 15 15 16 15 14 13 7 5 5 6 5 7 6 7 7 3 3 3 5 5 3 3 1 3 5 6 1 1 6 4 6 1 2 3 7 2 5 30
11 12 12 13 14 14 15 15 15 15 15 15 14 10 7 8 10 14 13 11 8 4 3 6 6 7 4 3 3 3 3 5 4 6 3 4 6 5 2 6 6 5 8 13 26
12 12 13 13 14 15 15 16 16 16 15 15 14 10 7 5 5 3 16 17 10 7 5 4 7 5 6 5 5 5 5 4 5 2 3 6 5 6 6 8 8 12 11 15 18
15 15 14 14 15 15 16 16 16 17 17 16 14 9 4 1 5 1 7 12 10 9 6 5 4 3 4 7 9 4 11 8 1 2 1 4 5 7 11 14 4 2 2 16 18
18 18 18 17 16 17 17 18 17 18 18 18 15 8 2 5 6 4 7 10 8 9 9 6 8 7 8 5 4 8 9 7 7 4 5 7 11 7 13 11 13 11 4 15 16
23 23 22 20 18 19 19 19 19 19 19 19 12 5 3 7 4 5 9 10 8 10 11 7 5 3 5 6 6 5 7 9 7 10 6 5 6 5 8 14 14 10 11 11 14
20 22 25 25 23 22 20 20 21 21 20 17 8 5 5 12 5 7 9 8 11 9 10 11 4 4 4 7 6 3 7 9 12 10 5 4 10 14 21 9 9 10 11 12 13
19 21 23 26 25 23 21 20 21 23 20 11 4 4 7 9 7 7 8 4 6 6 6 2 4 4 3 4 4 4 5 4 4 12 6 9 11 11 17 13 12 10 10 10 13
17 20 24 28 27 23 22 20 22 20 12 3 4 4 6 2 4 8 9 5 7 5 3 3 3 4 4 3 6 8 6 10 8 13 8 10 9 6 5 3 7 10 11 11 12
15 18 23 27 28 24 21 19 19 7 3 2 4 2 6 3 5 6 8 8 4 7 4 5 5 4 4 6 7 7 8 9 10 8 7 8 17 13 10 7 11 12 12 12 14
16 18 21 24 27 20 21 8 3 3 6 8 5 5 4 5 7 7 7 8 4 4 7 7 5 12 15 15 17 12 14 16 21 12 9 15 17 15 17 9 12 16 17 14 16
17 17 20 25 22 11 10 5 5 4 10 12 17 11 2 7 5 8 14 8 7 10 9 4 15 16 10 11 9 9 11 19 16 7 7 9 13 11 10 16 17 18 18 22 10
17 17 19 24 14 7 4 1 4 5 6 6 7 7 5 12 8 13 16 6 7 8 14 17 8 12 6 9 9 14 12 15 16 12 4 4 7 11 11 19 20 19 21 18 11
17 16 17 24 3 10 1 6 4 1 4 6 4 1 2 2 6 3 17 7 8 12 11 15 17 18 18 19 11 20 9 10 12 7 7 7 8 9 5 9 10 14 14 15 9
17 15 14 9 13 6 4 6 6 3 7 2 2 2 4 4 2 3 5 2 13 8 7 8 7 6 8 12 8 8 4 3 5 6 6 6 7 7 10 9 14 12 14 12 8
19 17 14 7 4 7 8 5 3 3 9 4 5 3 2 3 1 3 3 4 4 6 10 15 3 3 4 2 1 4 0 5 3 2 7 11 12 5 7 9 6 8 18 6 9
21 20 19 8 1 2 2 3 3 7 2 4 4 6 6 7 6 6 4 4 5 2 7 7 19 3 4 3 2 3 2 3 3 2 10 11 12 17 5 6 9 11 19 9 9
15 17 23 21 11 11 3 1 12 5 18 3 5 6 6 8 8 10 6 6 12 7 3 4 7 17 8 11 7 8 8 6 7 4 18 4 8 8 10 13 11 20 4 9 9
11 12 7 18 20 8 1 5 12 9 12 16 10 4 7 7 6 6 9 6 8 18 9 7 8 5 4 3 9 6 6 5 3 1 5 10 8 7 8 10 12 8 6 9 9
5 4 8 15 24 11 2 9 10 7 6 7 12 7 8 12 9 10 10 7 8 15 14 5 9 6 3 4 2 3 1 2 2 2 8 17 8 8 5 11 7 8 10 7 8
5 3 7 20 23 2 5 9 12 13 11 8 16 19 20 19 12 12 11 8 7 4 17 5 6 8 6 9 10 3 4 4 2 4 7 18 10 4 8 5 10 12 7 7 9
4 5 21 35 5 4 9 7 8 18 8 6 2 14 24 23 12 10 15 12 11 2 5 3 1 4 15 3 3 7 10 11 7 10 5 12 25 1 5 5 8 9 8 7 7
2 3 23 18 9 11 4 10 12 20 21 8 12 13 13 14 9 17 21 25 23 7 4 1 1 5 14 15 3 6 5 11 14 8 18 17 24 14 11 5 7 7 7 8 9
2 3 2 4 10 19 20 13 18 18 24 25 14 15 15 21 21 11 15 16 17 19 3 11 5 12 16 17 8 3 5 11 14 12 24 21 30 27 28 25 25 23 10 11 9
2 4 4 4 6 14 21 21 24 21 25 17 14 28 20 17 20 23 27 29 20 20 2 8 10 18 21 24 29 31 32 22 19 22 22 28 24 30 31 22 26 21 16 10 14
3 3 3 4 7 6 7 16 24 30 28 23 26 28 24 30 28 31 22 19 18 3 15 12 8 14 22 30 35 34 28 26 31 35 32 32 30 31 33 30 32 27 30 16 20
4 4 1 5 7 9 8 3 5 10 11 19 23 23 26 28 27 31 28 25 18 15 11 9 8 7 17 23 24 18 31 37 33 30 33 29 38 41 34 35 35 28 26 18 19
Wind_Direction
1 3 7 10 10 12 13 12 12 10 7 6 3 346 283 265 297 269 246 231 209 238 189 167 190 213 228 231 229 268 284 267 276 339 284 106 197 151 58 246 208 183 349 96 151
344 348 352 357 358 1 360 2 2 2 359 354 353 344 317 266 277 252 245 237 233 213 157 210 211 174 242 218 192 221 233 263 40 344 283 169 215 179 193 224 233 203 106 127 151
331 332 337 341 345 348 349 352 352 352 350 347 343 338 328 296 271 220 215 221 211 197 186 255 292 222 240 224 202 219 234 26 325 344 351 299 263 234 209 249 218 214 195 162 167
331 326 325 327 331 332 334 338 341 341 341 338 333 327 320 215 275 216 198 202 195 184 178 195 228 202 230 222 222 259 245 264 312 45 310 246 277 268 221 232 292 334 224 165 177
332 328 324 322 321 321 324 326 330 331 332 332 325 314 287 226 251 223 178 184 185 176 202 211 225 222 252 267 211 222 263 270 253 231 237 274 259 252 263 257 240 250 177 173 188
329 328 324 321 318 313 316 317 321 322 324 324 316 286 242 245 226 209 192 188 186 194 212 225 240 336 298 253 244 13 293 289 257 225 214 230 260 222 241 240 245 238 198 191 196
334 328 328 327 321 317 312 314 316 315 316 315 299 216 253 245 224 211 198 198 200 209 245 228 301 225 340 258 351 274 298 266 244 216 225 178 275 231 245 269 237 242 222 198 208
342 344 340 335 328 320 311 310 311 310 308 304 257 177 253 213 197 198 188 193 204 221 233 157 217 258 230 349 249 213 232 275 259 161 163 147 261 230 246 219 216 234 244 233 213
340 346 350 347 336 323 311 310 308 304 296 247 171 222 259 166 189 204 190 195 164 160 166 168 210 234 132 211 283 223 249 235 261 179 133 180 249 257 114 142 223 229 241 241 230
332 342 350 350 343 329 314 315 302 281 260 216 267 231 195 187 152 175 187 181 180 153 170 198 214 220 205 198 227 236 240 263 265 198 179 206 254 271 260 276 262 261 254 243 242
322 330 342 351 346 338 338 346 264 220 227 218 193 238 145 131 158 194 181 172 201 208 199 194 188 217 217 219 234 255 267 265 267 261 190 231 242 248 264 245 257 262 263 256 253
314 323 332 343 349 7 14 357 68 310 298 254 259 252 208 180 188 197 168 178 181 207 207 212 226 235 260 265 283 274 277 272 280 315 214 250 257 258 267 266 255 260 266 263 255
306 316 323 340 352 26 5 88 318 1 253 235 228 222 217 174 222 195 170 198 196 213 214 224 203 211 242 245 261 250 247 264 266 286 236 314 269 247 246 251 258 259 253 260 239
297 307 313 337 4 340 65 334 342 55 274 235 205 248 134 245 269 38 195 175 214 219 215 252 240 243 250 253 236 266 245 262 272 262 251 164 281 224 232 260 234 245 253 248 225
285 292 294 334 307 322 303 325 331 283 285 103 162 330 20 243 31 351 349 16 234 188 171 220 180 187 230 239 217 269 137 271 291 274 308 247 281 231 196 241 246 246 261 261 229
273 277 275 303 257 275 301 329 335 236 246 189 126 161 161 193 356 10 306 305 334 272 257 256 89 218 210 84 102 124 169 216 226 217 254 212 217 224 193 213 232 239 255 196 156
268 263 248 221 330 275 290 295 268 229 297 178 197 170 207 187 190 190 177 210 212 187 233 226 237 163 137 148 154 141 134 298 286 193 253 188 224 242 204 191 198 223 249 153 162
300 297 255 227 245 239 171 148 237 203 219 190 167 186 215 173 219 187 196 227 230 263 302 238 273 182 179 208 172 181 172 174 243 218 277 316 255 253 214 231 209 229 206 157 172
300 292 234 252 220 206 59 188 238 251 250 270 267 275 222 215 223 163 219 235 211 193 210 217 250 16 145 153 159 184 192 192 259 126 298 239 270 296 244 223 214 219 182 181 186
319 229 219 251 206 137 123 238 263 321 322 336 293 244 255 240 188 184 186 218 221 191 212 282 276 190 133 32 341 189 253 103 225 282 246 274 275 249 195 223 250 249 224 230 209
292 250 206 188 162 158 195 218 266 271 275 259 272 291 283 279 276 262 235 248 196 199 195 218 212 250 123 194 191 164 232 230 241 188 244 276 262 273 204 193 207 222 217 210 200
229 245 160 163 178 196 221 202 221 260 248 262 257 247 258 279 294 310 290 284 354 106 181 224 195 243 251 49 302 200 225 189 218 238 233 246 264 67 138 199 155 166 184 207 196
240 249 179 185 226 223 226 239 240 252 248 199 225 213 235 249 251 238 258 269 285 253 237 115 30 313 303 293 255 215 213 224 234 252 242 244 263 217 261 174 174 189 215 208 208
282 245 214 244 243 241 234 224 232 229 246 245 240 224 232 239 235 247 240 250 243 252 235 83 194 222 237 247 286 317 253 239 228 243 249 246 261 266 267 268 274 275 240 232 233
247 250 226 219 248 269 258 245 242 237 230 244 239 236 225 244 243 239 244 254 261 253 198 152 226 222 237 254 264 261 263 255 269 257 250 267 259 268 268 268 267 273 271 264 282
292 294 4 320 316 301 258 254 271 262 250 238 237 246 240 239 236 252 243 241 238 255 229 175 235 221 233 233 240 248 256 259 244 247 255 256 268 255 270 272 271 272 268 278 277
330 4 318 246 269 270 255 290 313 347 313 290 285 262 253 249 250 243 245 258 257 225 236 188 200 209 243 236 246 252 236 238 247 250 243 245 244 256 258 258 261 265 275 272 263